Location: Betpouey
(42.8833°N, 0.0333°E)
Time: 08:13:40
(UTC+00:00)

USA 281 - Pass Details

Date: 01 December 2020
Orbit: 1074 x 1084 km, 106.0° (Epoch: 08 January)

Event Time Altitude Azimuth Distance (km) Brightness Sun altitude
Rises 19:03:07 0° 161° (SSE) 3,869 6.0 -28.0°
Reaches altitude 10° 19:05:38 10° 163° (SSE) 2,915 5.4 -28.5°
Maximum altitude 19:12:10 72° 248° (WSW) 1,134 3.3 -29.7°
Drops below altitude 10° 19:18:44 10° 332° (NNW) 2,925 5.7 -30.9°
Sets 19:21:17 0° 335° (NNW) 3,884 6.4 -31.3°
